User: anonymous
Location: Fort Wayne
(41.1310°N, 85.1290°W)
Time: 06:19:11
(UTC-04:00)
Language:

Cosmos 2056 Rocket - Orbit

View from above orbital plane
View from above orbital plane
View from above satellite
View from above satellite

Ground track
Ground track

The orbit data is extracted from the following two-line orbital elements,

1 20433U 90004B   14209.15736715  .00000114  00000-0  48052-4 0  7779
2 20433 074.0369 132.6216 0040716 160.5719 303.5056 14.35649058283775
Epoch (UTC): 28 July 2014 03:46:36
Eccentricity: 0.0040716
inclination: 74.0369°
perigee height: 744 km
apogee height: 802 km
right ascension of ascending node: 132.6216°
argument of perigee: 160.5719°
revolutions per day: 14.35649058
mean anomaly at epoch: 303.5056°
orbit number at epoch: 28377

The dashed part of the orbit path shows where the satellite is in the earth's shadow,  

DLR